Tracking 19827 objects as of 22-Aug-2019
HD Live streaming from Space Station
objects crossing your sky now

COSMOS 886

Track COSMOS 886 now!
10-day predictions
COSMOS 886 is classified as:


NORAD ID: 9634
Int'l Code: 1976-126A
Perigee: 594.0 km
Apogee: 2,298.1 km
Inclination: 65.8 °
Period: 114.6 minutes
Semi major axis: 7817 km
RCS: 4.7964 m2 (large)
Launch date: December 27, 1976
Source: Commonwealth of Independent States (former USSR) (CIS)
Launch site: TYURATAM MISSILE AND SPACE COMPLEX (TTMTR)
aabbcc
Your satellite tracking list
Your tracking list is empty




NASA's NSSDC Master Catalog

Two Line Element Set (TLE):
1  9634U 76126A   19233.38842260 -.00000052  00000-0  10251-4 0  9996
2  9634  65.8343 139.1108 1089950 194.7961 161.8624 12.56144669967368
Source of the keplerian elements: AFSPC